User: anonymous   Login
Location: Caltech
(34.1382°N, 118.1253°W)
Time: 05:44:24
(UTC-07:00)
Language:

Sapphire - Orbit

View from above orbital plane
View from above orbital plane
View from above satellite
View from above satellite

Ground track
Ground track

The orbit data is extracted from the following two-line orbital elements,

1 26932U 01043D   17265.90685253 -.00000035 +00000-0 +18594-4 0  9999
2 26932 067.0562 201.5358 0007888 250.6589 109.3660 14.30258772834278
Epoch (UTC): 22 September 2017 21:45:52
Eccentricity: 0.0007888
inclination: 67.0562°
perigee height: 785 km
apogee height: 796 km
right ascension of ascending node: 201.5358°
argument of perigee: 250.6589°
revolutions per day: 14.30258772
mean anomaly at epoch: 109.3660°
orbit number at epoch: 83427

The dashed part of the orbit path shows where the satellite is in the earth's shadow,  

DLR